Fort Belvoir, VA

2:48 PM EDT on June 23, 2017 (GMT -0400)
Davison Army Air Field

Weather History for KDAA - January, 2012

Change the Weather History Date:

Sunday, January 29, 2012

  Actual Average Record
Temperature  
Mean Temperature 36 °F -  
Max Temperature 49 °F 43 °F 73 °F (2002)
Min Temperature 24 °F 26 °F 6 °F (2004)
Degree Days  
Heating Degree Days 28    
Moisture  
Dew Point 12 °F    
Average Humidity 38    
Maximum Humidity 79    
Minimum Humidity 17    
Precipitation  
Precipitation 0.00 in - - ()
Sea Level Pressure  
Sea Level Pressure 30.22 in    
Wind  
Wind Speed 5 mph (SW)    
Max Wind Speed 34 mph    
Max Gust Speed 43 mph    
Visibility 10 miles    
Events      
Averages and records for this station are not official NWS values.
T = Trace of Precipitation, MM = Missing Value Source: NWS Daily Summary

Daily Weather History Graph

Daily Weather History Graph

Search for Another Location

Airport or City:

Trip Planner

Search our weather history database for the weather conditions in past years. The results will help you decide how hot, cold, wet, or windy it might be!

Date:

Astronomy

Jan. 29, 2012 Rise Set
Actual Time 7:17 AM EST 5:26 PM EST
Civil Twilight 6:49 AM EST 5:54 PM EST
Nautical Twilight 6:17 AM EST 6:26 PM EST
Astronomical Twilight 5:45 AM EST 6:58 PM EST
Moon 10:12 AM EST (1/29) No Moon Set
Length of Visible Light 11h 05m
Length of Day
10h 08m
Waxing Crescent, 36% of the Moon is Illuminated
Jan 29
Waxing Crescent
Jan 30
First Quarter
Feb 7
Full
Feb 14
Last Quarter
Feb 21
New

Hourly Weather History & Observations

Time (EST) Temp. Windchill Dew Point Humidity Pressure Visibility Wind Dir Wind Speed Gust Speed Precip Events Conditions
12:55 AM 38.3 °F 33.2 °F 10.8 °F 32% 30.22 in 10.0 mi WNW 6.9 mph - N/A   Clear
1:55 AM 37.8 °F 34.2 °F 7.2 °F 28% 30.24 in 10.0 mi WNW 4.6 mph - N/A   Clear
2:55 AM 30.4 °F - 12.6 °F 48% 30.25 in 10.0 mi Calm Calm - N/A   Clear
3:55 AM 29.1 °F - 12.7 °F 50% 30.26 in 10.0 mi Calm Calm - N/A   Clear
4:55 AM 26.4 °F - 16.3 °F 66% 30.27 in 10.0 mi Calm Calm - N/A   Clear
5:55 AM 26.1 °F - 18.0 °F 71% 30.28 in 10.0 mi Calm Calm - N/A   Clear
6:55 AM 24.1 °F - 17.1 °F 75% 30.31 in 10.0 mi Calm Calm - N/A   Clear
7:55 AM 24.1 °F - 18.3 °F 79% 30.32 in 10.0 mi Calm Calm - N/A   Clear
8:55 AM 32.5 °F - 20.8 °F 62% 30.32 in 10.0 mi Calm Calm - N/A   Clear
9:55 AM 41.5 °F 39.6 °F 10.8 °F 28% 30.31 in 10.0 mi Variable 3.5 mph - N/A   Clear
10:55 AM 44.6 °F 40.7 °F 9.1 °F 24% 30.31 in 10.0 mi Variable 6.9 mph - N/A   Clear
11:55 AM 45.5 °F 41.8 °F 9.7 °F 23% 30.28 in 10.0 mi Variable 6.9 mph - N/A   Clear
12:55 PM 45.5 °F 42.5 °F 9.5 °F 23% 30.25 in 10.0 mi Variable 5.8 mph - N/A   Clear
1:55 PM 48.4 °F - 9.7 °F 21% 30.21 in 10.0 mi SW 10.4 mph - N/A   Clear
2:55 PM 49.5 °F - 6.8 °F 18% 30.18 in 10.0 mi SW 5.8 mph 17.3 mph N/A   Clear
3:55 PM 49.5 °F - 6.4 °F 17% 30.16 in 10.0 mi South 9.2 mph 17.3 mph N/A   Clear
4:55 PM 47.7 °F - 8.4 °F 20% 30.14 in 10.0 mi Variable 5.8 mph - N/A   Clear
5:55 PM 45.9 °F 43.6 °F 7.0 °F 20% 30.14 in 10.0 mi SSE 4.6 mph - N/A   Clear
6:55 PM 43.0 °F 40.3 °F 12.4 °F 29% 30.14 in 10.0 mi SSE 4.6 mph - N/A   Clear
7:55 PM 41.7 °F 38.0 °F 12.7 °F 31% 30.13 in 10.0 mi SSE 5.8 mph - N/A   Clear
8:55 PM 43.9 °F 39.9 °F 10.9 °F 26% 30.10 in 10.0 mi SSE 6.9 mph - N/A   Partly Cloudy
9:55 PM 43.7 °F 39.7 °F 14.7 °F 31% 30.10 in 10.0 mi SSW 6.9 mph - N/A   Partly Cloudy
10:55 PM 43.3 °F 37.2 °F 12.0 °F 28% 30.16 in 10.0 mi WNW 11.5 mph - N/A   Scattered Clouds
10:59 PM 42.8 °F 31.6 °F 14.0 °F 31% 30.17 in 10.0 mi NW 34.5 mph 42.6 mph N/A   Squalls
11:55 PM 38.3 °F 29.7 °F 24.3 °F 57% 30.21 in 10.0 mi NW 15.0 mph 26.5 mph N/A   Overcast